Time,TemperatureF,DewpointF,PressureIn,WindDirection,WindDirectionDegrees,WindSpeedMPH,WindSpeedGustMPH,Humidity,HourlyPrecipIn,Conditions,Clouds,dailyrainin,SoftwareType,DateUTC
2013-01-27 00:00:00,31.1,20.0,30.36,North,351,5.0,7.0,63,0.00,,---,0.00,VWS V14.00,2013-01-27 05:00:00,
2013-01-27 00:03:00,31.0,19.9,30.36,North,350,1.0,7.0,63,0.00,,---,0.00,VWS V14.00,2013-01-27 05:03:00,
2013-01-27 00:08:00,31.0,19.9,30.36,North,350,0.0,7.0,63,0.00,,---,0.00,VWS V14.00,2013-01-27 05:08:00,
2013-01-27 00:13:00,31.0,19.9,30.36,North,351,0.0,7.0,63,0.00,,---,0.00,VWS V14.00,2013-01-27 05:13:00,
2013-01-27 00:18:00,31.0,19.9,30.36,North,355,2.0,7.0,63,0.00,,---,0.00,VWS V14.00,2013-01-27 05:18:00,
2013-01-27 00:23:00,31.0,19.9,30.36,North,355,2.0,7.0,63,0.00,,---,0.00,VWS V14.00,2013-01-27 05:23:00,
2013-01-27 00:28:00,31.0,19.9,30.36,North,355,0.0,2.0,63,0.00,,---,0.00,VWS V14.00,2013-01-27 05:28:00,
2013-01-27 00:33:00,30.8,19.7,30.36,North,355,0.0,2.0,63,0.00,,---,0.00,VWS V14.00,2013-01-27 05:33:00,
2013-01-27 00:38:00,30.5,20.1,30.37,North,355,0.0,2.0,65,0.00,,---,0.00,VWS V14.00,2013-01-27 05:38:00,
2013-01-27 00:43:00,30.5,20.1,30.37,North,355,0.0,2.0,65,0.00,,---,0.00,VWS V14.00,2013-01-27 05:43:00,
2013-01-27 00:48:00,30.5,20.1,30.37,North,355,0.0,2.0,65,0.00,,---,0.00,VWS V14.00,2013-01-27 05:48:00,
2013-01-27 00:53:00,30.6,19.9,30.36,North,355,0.0,2.0,64,0.00,,---,0.00,VWS V14.00,2013-01-27 05:53:00,
2013-01-27 00:58:00,30.5,20.1,30.37,North,355,2.0,6.0,65,0.00,,---,0.00,VWS V14.00,2013-01-27 05:58:00,
2013-01-27 01:03:00,30.5,20.1,30.37,North,355,1.0,6.0,65,0.00,,---,0.00,VWS V14.00,2013-01-27 06:03:00,
2013-01-27 01:08:00,30.5,20.1,30.37,North,355,0.0,6.0,65,0.00,,---,0.00,VWS V14.00,2013-01-27 06:08:00,
2013-01-27 01:13:00,30.5,20.1,30.37,North,355,0.0,6.0,65,0.00,,---,0.00,VWS V14.00,2013-01-27 06:13:00,
2013-01-27 01:18:00,30.5,20.1,30.37,North,355,0.0,6.0,65,0.00,,---,0.00,VWS V14.00,2013-01-27 06:18:00,
2013-01-27 01:23:00,30.4,20.1,30.37,North,355,0.0,6.0,65,0.00,,---,0.00,VWS V14.00,2013-01-27 06:23:00,
2013-01-27 01:28:00,30.2,20.2,30.37,North,355,0.0,0.0,66,0.00,,---,0.00,VWS V14.00,2013-01-27 06:28:00,
2013-01-27 01:33:00,29.9,20.3,30.37,North,355,0.0,0.0,67,0.00,,---,0.00,VWS V14.00,2013-01-27 06:33:00,
2013-01-27 01:38:00,29.7,20.5,30.38,North,355,0.0,0.0,68,0.00,,---,0.00,VWS V14.00,2013-01-27 06:38:00,
2013-01-27 01:43:00,29.7,20.5,30.39,North,355,0.0,0.0,68,0.00,,---,0.00,VWS V14.00,2013-01-27 06:43:00,
2013-01-27 01:48:00,29.8,20.5,30.39,North,355,0.0,0.0,68,0.00,,---,0.00,VWS V14.00,2013-01-27 06:48:00,
2013-01-27 01:53:00,29.7,20.5,30.39,North,355,0.0,0.0,68,0.00,,---,0.00,VWS V14.00,2013-01-27 06:53:00,
2013-01-27 01:58:00,29.9,20.6,30.38,North,355,0.0,0.0,68,0.00,,---,0.00,VWS V14.00,2013-01-27 06:58:00,
2013-01-27 02:03:00,30.0,20.4,30.38,North,355,0.0,0.0,67,0.00,,---,0.00,VWS V14.00,2013-01-27 07:03:00,
2013-01-27 02:08:00,29.9,20.3,30.38,North,355,0.0,0.0,67,0.00,,---,0.00,VWS V14.00,2013-01-27 07:08:00,
2013-01-27 02:13:00,29.7,20.5,30.39,North,355,0.0,0.0,68,0.00,,---,0.00,VWS V14.00,2013-01-27 07:13:00,
2013-01-27 02:18:00,29.7,20.5,30.39,North,355,0.0,0.0,68,0.00,,---,0.00,VWS V14.00,2013-01-27 07:18:00,
2013-01-27 02:23:00,29.8,20.5,30.39,North,355,0.0,0.0,68,0.00,,---,0.00,VWS V14.00,2013-01-27 07:23:00,
2013-01-27 02:28:00,29.6,20.4,30.39,North,355,0.0,0.0,68,0.00,,---,0.00,VWS V14.00,2013-01-27 07:28:00,
2013-01-27 02:33:00,29.2,21.0,30.40,North,355,0.0,0.0,71,0.00,,---,0.00,VWS V14.00,2013-01-27 07:33:00,
2013-01-27 02:38:00,28.9,21.0,30.40,North,355,0.0,0.0,72,0.00,,---,0.00,VWS V14.00,2013-01-27 07:38:00,
2013-01-27 02:43:00,28.9,21.0,30.40,North,355,0.0,0.0,72,0.00,,---,0.00,VWS V14.00,2013-01-27 07:43:00,
2013-01-27 02:48:00,28.9,21.4,30.40,North,355,0.0,0.0,73,0.00,,---,0.00,VWS V14.00,2013-01-27 07:48:00,
2013-01-27 02:53:00,28.8,21.2,30.41,North,355,0.0,0.0,73,0.00,,---,0.00,VWS V14.00,2013-01-27 07:53:00,
2013-01-27 02:58:00,28.8,20.9,30.41,North,355,0.0,0.0,72,0.00,,---,0.00,VWS V14.00,2013-01-27 07:58:00,
2013-01-27 03:03:00,28.7,20.5,30.40,North,355,0.0,0.0,71,0.00,,---,0.00,VWS V14.00,2013-01-27 08:03:00,
2013-01-27 03:08:00,28.5,20.3,30.41,North,355,0.0,0.0,71,0.00,,---,0.00,VWS V14.00,2013-01-27 08:08:00,
2013-01-27 03:13:00,28.1,20.2,30.41,North,355,0.0,0.0,72,0.00,,---,0.00,VWS V14.00,2013-01-27 08:13:00,
2013-01-27 03:18:00,28.0,20.2,30.40,East,98,2.0,4.0,72,0.00,,---,0.00,VWS V14.00,2013-01-27 08:18:00,
2013-01-27 03:23:00,28.0,20.5,30.40,East,98,0.0,4.0,73,0.00,,---,0.00,VWS V14.00,2013-01-27 08:23:00,
2013-01-27 03:28:00,27.9,20.1,30.40,East,98,0.0,0.0,72,0.00,,---,0.00,VWS V14.00,2013-01-27 08:28:00,
2013-01-27 03:33:00,27.8,20.0,30.39,East,98,0.0,0.0,72,0.00,,---,0.00,VWS V14.00,2013-01-27 08:33:00,
2013-01-27 03:38:00,27.5,19.7,30.39,East,98,0.0,1.0,72,0.00,,---,0.00,VWS V14.00,2013-01-27 08:38:00,
2013-01-27 03:43:00,27.2,19.7,30.39,East,99,0.0,2.0,73,0.00,,---,0.00,VWS V14.00,2013-01-27 08:43:00,
2013-01-27 03:48:00,27.2,19.7,30.39,East,99,0.0,2.0,73,0.00,,---,0.00,VWS V14.00,2013-01-27 08:48:00,
2013-01-27 03:53:00,27.0,19.5,30.39,East,99,0.0,2.0,73,0.00,,---,0.00,VWS V14.00,2013-01-27 08:53:00,
2013-01-27 03:58:00,26.8,19.6,30.39,SSW,196,0.0,2.0,74,0.00,,---,0.00,VWS V14.00,2013-01-27 08:58:00,
2013-01-27 04:03:00,26.8,20.0,30.39,SSW,198,0.0,3.0,75,0.00,,---,0.00,VWS V14.00,2013-01-27 09:03:00,
2013-01-27 04:08:00,26.7,19.9,30.39,SSW,201,1.0,3.0,75,0.00,,---,0.00,VWS V14.00,2013-01-27 09:08:00,
2013-01-27 04:13:00,26.6,19.8,30.39,SSW,202,0.0,3.0,75,0.00,,---,0.00,VWS V14.00,2013-01-27 09:13:00,
2013-01-27 04:18:00,26.6,19.8,30.39,SSW,202,0.0,3.0,75,0.00,,---,0.00,VWS V14.00,2013-01-27 09:18:00,
2013-01-27 04:23:00,26.5,19.7,30.39,SSW,203,0.0,3.0,75,0.00,,---,0.00,VWS V14.00,2013-01-27 09:23:00,
2013-01-27 04:28:00,26.3,19.5,30.39,SSW,203,0.0,0.0,75,0.00,,---,0.00,VWS V14.00,2013-01-27 09:28:00,
2013-01-27 04:33:00,26.0,19.5,30.39,SSW,203,0.0,0.0,76,0.00,,---,0.00,VWS V14.00,2013-01-27 09:33:00,
2013-01-27 04:38:00,25.9,19.4,30.39,SSW,203,0.0,1.0,76,0.00,,---,0.00,VWS V14.00,2013-01-27 09:38:00,
2013-01-27 04:43:00,25.4,18.9,30.40,SSW,203,0.0,1.0,76,0.00,,---,0.00,VWS V14.00,2013-01-27 09:43:00,
2013-01-27 04:48:00,25.3,19.4,30.40,SSW,203,0.0,1.0,78,0.00,,---,0.00,VWS V14.00,2013-01-27 09:48:00,
2013-01-27 04:53:00,25.3,19.1,30.40,SSW,203,0.0,1.0,77,0.00,,---,0.00,VWS V14.00,2013-01-27 09:53:00,
2013-01-27 04:58:00,24.8,18.6,30.39,SSW,203,0.0,0.0,77,0.00,,---,0.00,VWS V14.00,2013-01-27 09:58:00,
2013-01-27 05:03:00,24.8,18.9,30.40,SSW,203,0.0,0.0,78,0.00,,---,0.00,VWS V14.00,2013-01-27 10:03:00,
2013-01-27 05:08:00,24.7,18.8,30.40,SSW,203,0.0,0.0,78,0.00,,---,0.00,VWS V14.00,2013-01-27 10:08:00,
2013-01-27 05:13:00,24.6,18.7,30.40,SSW,203,0.0,0.0,78,0.00,,---,0.00,VWS V14.00,2013-01-27 10:13:00,
2013-01-27 05:18:00,24.0,17.9,30.40,SSW,203,0.0,0.0,77,0.00,,---,0.00,VWS V14.00,2013-01-27 10:18:00,
2013-01-27 05:23:00,24.0,18.5,30.41,SSW,203,0.0,0.0,79,0.00,,---,0.00,VWS V14.00,2013-01-27 10:23:00,
2013-01-27 05:28:00,23.5,17.7,30.40,SSW,203,0.0,0.0,78,0.00,,---,0.00,VWS V14.00,2013-01-27 10:28:00,
2013-01-27 05:33:00,23.3,17.8,30.40,SSW,203,0.0,0.0,79,0.00,,---,0.00,VWS V14.00,2013-01-27 10:33:00,
2013-01-27 05:38:00,23.5,18.5,30.41,SSW,203,0.0,0.0,81,0.00,,---,0.00,VWS V14.00,2013-01-27 10:38:00,
2013-01-27 05:43:00,23.6,18.4,30.41,SSW,203,0.0,0.0,80,0.00,,---,0.00,VWS V14.00,2013-01-27 10:43:00,
2013-01-27 05:48:00,23.7,18.5,30.42,SSW,203,0.0,0.0,80,0.00,,---,0.00,VWS V14.00,2013-01-27 10:48:00,
2013-01-27 05:53:00,23.4,18.1,30.42,SSW,203,0.0,0.0,80,0.00,,---,0.00,VWS V14.00,2013-01-27 10:53:00,
2013-01-27 05:58:00,23.0,17.8,30.43,SSW,203,0.0,0.0,80,0.00,,---,0.00,VWS V14.00,2013-01-27 10:58:00,
2013-01-27 06:03:00,23.1,18.1,30.42,SSW,203,0.0,0.0,81,0.00,,---,0.00,VWS V14.00,2013-01-27 11:03:00,
2013-01-27 06:08:00,22.6,17.4,30.43,SSW,203,0.0,0.0,80,0.00,,---,0.00,VWS V14.00,2013-01-27 11:08:00,
2013-01-27 06:13:00,22.0,16.8,30.43,SSW,203,0.0,0.0,80,0.00,,---,0.00,VWS V14.00,2013-01-27 11:13:00,
2013-01-27 06:18:00,21.3,16.4,30.43,SSW,203,0.0,0.0,81,0.00,,---,0.00,VWS V14.00,2013-01-27 11:18:00,
2013-01-27 06:23:00,21.3,16.7,30.44,SSW,203,0.0,0.0,82,0.00,,---,0.00,VWS V14.00,2013-01-27 11:23:00,
2013-01-27 06:28:00,21.1,16.5,30.44,SSW,203,0.0,0.0,82,0.00,,---,0.00,VWS V14.00,2013-01-27 11:28:00,
2013-01-27 06:33:00,21.1,16.8,30.44,SSW,203,0.0,0.0,83,0.00,,---,0.00,VWS V14.00,2013-01-27 11:33:00,
2013-01-27 06:38:00,21.4,17.3,30.44,SSW,203,0.0,0.0,84,0.00,,---,0.00,VWS V14.00,2013-01-27 11:38:00,
2013-01-27 06:43:00,21.5,17.1,30.44,SSW,203,0.0,0.0,83,0.00,,---,0.00,VWS V14.00,2013-01-27 11:43:00,
2013-01-27 06:48:00,20.8,16.2,30.45,SSW,203,0.0,0.0,82,0.00,,---,0.00,VWS V14.00,2013-01-27 11:48:00,
2013-01-27 06:53:00,20.6,16.3,30.45,SSW,203,0.0,0.0,83,0.00,,---,0.00,VWS V14.00,2013-01-27 11:53:00,
2013-01-27 06:58:00,21.1,17.0,30.45,SSW,203,1.0,2.0,84,0.00,,---,0.00,VWS V14.00,2013-01-27 11:58:00,
2013-01-27 07:03:00,21.2,17.1,30.45,SSW,203,0.0,2.0,84,0.00,,---,0.00,VWS V14.00,2013-01-27 12:03:00,
2013-01-27 07:08:00,20.9,16.8,30.45,SSW,203,0.0,2.0,84,0.00,,---,0.00,VWS V14.00,2013-01-27 12:08:00,
2013-01-27 07:13:00,21.2,17.1,30.46,SSW,203,0.0,2.0,84,0.00,,---,0.00,VWS V14.00,2013-01-27 12:13:00,
2013-01-27 07:18:00,20.9,16.8,30.46,SSW,203,0.0,2.0,84,0.00,,---,0.00,VWS V14.00,2013-01-27 12:18:00,
2013-01-27 07:23:00,20.5,16.4,30.47,SSW,203,0.0,2.0,84,0.00,,---,0.00,VWS V14.00,2013-01-27 12:23:00,
2013-01-27 07:28:00,20.2,16.1,30.46,SSW,203,0.0,1.0,84,0.00,,---,0.00,VWS V14.00,2013-01-27 12:28:00,
2013-01-27 07:33:00,20.5,16.7,30.46,SSW,205,0.0,2.0,85,0.00,,---,0.00,VWS V14.00,2013-01-27 12:33:00,
2013-01-27 07:38:00,20.8,17.3,30.47,SSW,205,0.0,3.0,86,0.00,,---,0.00,VWS V14.00,2013-01-27 12:38:00,
2013-01-27 07:43:00,20.9,17.1,30.47,SSW,205,0.0,3.0,85,0.00,,---,0.00,VWS V14.00,2013-01-27 12:43:00,
2013-01-27 07:48:00,21.0,17.5,30.47,SSW,206,0.0,3.0,86,0.00,,---,0.00,VWS V14.00,2013-01-27 12:48:00,
2013-01-27 07:53:00,21.2,17.7,30.47,SSW,206,0.0,3.0,86,0.00,,---,0.00,VWS V14.00,2013-01-27 12:53:00,
2013-01-27 07:58:00,21.2,17.7,30.47,SSW,206,0.0,0.0,86,0.00,,---,0.00,VWS V14.00,2013-01-27 12:58:00,
2013-01-27 08:03:00,21.2,17.7,30.48,SSW,206,0.0,0.0,86,0.00,,---,0.00,VWS V14.00,2013-01-27 13:03:00,
2013-01-27 08:08:00,21.5,18.0,30.48,SSW,206,0.0,0.0,86,0.00,,---,0.00,VWS V14.00,2013-01-27 13:08:00,
2013-01-27 08:13:00,21.8,18.3,30.48,SSW,206,0.0,0.0,86,0.00,,---,0.00,VWS V14.00,2013-01-27 13:13:00,
2013-01-27 08:18:00,22.0,18.2,30.48,SSW,206,0.0,0.0,85,0.00,,---,0.00,VWS V14.00,2013-01-27 13:18:00,
2013-01-27 08:23:00,22.2,18.4,30.49,SSW,206,0.0,0.0,85,0.00,,---,0.00,VWS V14.00,2013-01-27 13:23:00,
2013-01-27 08:28:00,22.3,18.5,30.49,SSW,206,0.0,0.0,85,0.00,,---,0.00,VWS V14.00,2013-01-27 13:28:00,
2013-01-27 08:33:00,22.2,18.1,30.48,SSW,206,0.0,0.0,84,0.00,,---,0.00,VWS V14.00,2013-01-27 13:33:00,
2013-01-27 08:38:00,22.6,18.8,30.49,SSW,206,0.0,0.0,85,0.00,,---,0.00,VWS V14.00,2013-01-27 13:38:00,
2013-01-27 08:43:00,23.2,19.4,30.49,SSW,207,0.0,2.0,85,0.00,,---,0.00,VWS V14.00,2013-01-27 13:43:00,
2013-01-27 08:48:00,23.6,19.8,30.49,SSW,207,0.0,2.0,85,0.00,,---,0.00,VWS V14.00,2013-01-27 13:48:00,
2013-01-27 08:53:00,23.8,19.7,30.50,SSW,207,0.0,2.0,84,0.00,,---,0.00,VWS V14.00,2013-01-27 13:53:00,
2013-01-27 08:58:00,24.2,20.1,30.50,SSW,207,0.0,0.0,84,0.00,,---,0.00,VWS V14.00,2013-01-27 13:58:00,
2013-01-27 09:03:00,24.7,20.0,30.50,SSW,207,0.0,0.0,82,0.00,,---,0.00,VWS V14.00,2013-01-27 14:03:00,
2013-01-27 09:08:00,25.0,20.0,30.50,SSW,207,0.0,0.0,81,0.00,,---,0.00,VWS V14.00,2013-01-27 14:08:00,
2013-01-27 09:13:00,25.3,20.3,30.49,SSW,207,0.0,0.0,81,0.00,,---,0.00,VWS V14.00,2013-01-27 14:13:00,
2013-01-27 09:18:00,26.3,21.3,30.50,SSW,207,0.0,0.0,81,0.00,,---,0.00,VWS V14.00,2013-01-27 14:18:00,
2013-01-27 09:23:00,26.6,21.0,30.50,SSW,207,0.0,0.0,79,0.00,,---,0.00,VWS V14.00,2013-01-27 14:23:00,
2013-01-27 09:28:00,26.7,21.1,30.50,SSW,207,0.0,0.0,79,0.00,,---,0.00,VWS V14.00,2013-01-27 14:28:00,
2013-01-27 09:33:00,27.2,21.3,30.50,SSW,208,0.0,0.0,78,0.00,,---,0.00,VWS V14.00,2013-01-27 14:33:00,
2013-01-27 09:38:00,27.3,21.1,30.50,SSW,209,0.0,0.0,77,0.00,,---,0.00,VWS V14.00,2013-01-27 14:38:00,
2013-01-27 09:43:00,27.8,21.2,30.50,SSW,211,0.0,0.0,76,0.00,,---,0.00,VWS V14.00,2013-01-27 14:43:00,
2013-01-27 09:48:00,27.8,20.9,30.50,SW,216,0.0,3.0,75,0.00,,---,0.00,VWS V14.00,2013-01-27 14:48:00,
2013-01-27 09:53:00,28.2,21.3,30.50,SW,217,0.0,4.0,75,0.00,,---,0.00,VWS V14.00,2013-01-27 14:53:00,
2013-01-27 09:58:00,28.5,21.3,30.50,SW,217,2.0,2.0,74,0.00,,---,0.00,VWS V14.00,2013-01-27 14:58:00,
2013-01-27 10:03:00,29.1,21.5,30.50,SW,218,0.0,3.0,73,0.00,,---,0.00,VWS V14.00,2013-01-27 15:03:00,
2013-01-27 10:08:00,29.4,21.5,30.50,South,190,0.0,4.0,72,0.00,,---,0.00,VWS V14.00,2013-01-27 15:08:00,
2013-01-27 10:13:00,29.6,21.4,30.50,SW,214,0.0,4.0,71,0.00,,---,0.00,VWS V14.00,2013-01-27 15:13:00,
2013-01-27 10:18:00,29.9,21.7,30.50,SSW,201,0.0,6.0,71,0.00,,---,0.00,VWS V14.00,2013-01-27 15:18:00,
2013-01-27 10:23:00,30.2,21.6,30.51,SSW,197,3.0,6.0,70,0.00,,---,0.00,VWS V14.00,2013-01-27 15:23:00,
2013-01-27 10:28:00,30.1,21.5,30.51,SSW,213,0.0,5.0,70,0.00,,---,0.00,VWS V14.00,2013-01-27 15:28:00,
2013-01-27 10:33:00,30.8,21.9,30.51,SSE,163,2.0,5.0,69,0.00,,---,0.00,VWS V14.00,2013-01-27 15:33:00,
2013-01-27 10:38:00,31.0,22.0,30.51,SSW,202,0.0,6.0,69,0.00,,---,0.00,VWS V14.00,2013-01-27 15:38:00,
2013-01-27 10:43:00,31.6,22.3,30.50,SSW,197,0.0,6.0,68,0.00,,---,0.00,VWS V14.00,2013-01-27 15:43:00,
2013-01-27 10:48:00,31.9,22.2,30.50,SW,219,2.0,6.0,67,0.00,,---,0.00,VWS V14.00,2013-01-27 15:48:00,
2013-01-27 10:53:00,32.0,21.6,30.50,SSE,162,0.0,6.0,65,0.00,,---,0.00,VWS V14.00,2013-01-27 15:53:00,
2013-01-27 10:58:00,32.2,21.4,30.50,South,180,5.0,7.0,64,0.00,,---,0.00,VWS V14.00,2013-01-27 15:58:00,
2013-01-27 11:03:00,32.3,21.1,30.50,South,183,0.0,7.0,63,0.00,,---,0.00,VWS V14.00,2013-01-27 16:03:00,
2013-01-27 11:08:00,32.7,21.5,30.50,South,186,3.0,8.0,63,0.00,,---,0.00,VWS V14.00,2013-01-27 16:08:00,
2013-01-27 11:13:00,32.8,20.9,30.50,South,169,1.0,9.0,61,0.00,,---,0.00,VWS V14.00,2013-01-27 16:13:00,
2013-01-27 11:18:00,33.8,21.4,30.50,SE,141,7.0,9.0,60,0.00,,---,0.00,VWS V14.00,2013-01-27 16:18:00,
2013-01-27 11:23:00,33.7,20.9,30.49,SSE,163,0.0,9.0,59,0.00,,---,0.00,VWS V14.00,2013-01-27 16:23:00,
2013-01-27 11:28:00,33.9,21.1,30.49,SE,136,2.0,7.0,59,0.00,,---,0.00,VWS V14.00,2013-01-27 16:28:00,
2013-01-27 11:33:00,34.0,20.8,30.49,SSE,155,0.0,9.0,58,0.00,,---,0.00,VWS V14.00,2013-01-27 16:33:00,
2013-01-27 11:38:00,34.6,21.0,30.49,SSW,197,1.0,9.0,57,0.00,,---,0.00,VWS V14.00,2013-01-27 16:38:00,
2013-01-27 11:43:00,34.8,20.7,30.48,South,188,1.0,9.0,56,0.00,,---,0.00,VWS V14.00,2013-01-27 16:43:00,
2013-01-27 11:48:00,35.3,21.2,30.48,SSE,168,7.0,11.0,56,0.00,,---,0.00,VWS V14.00,2013-01-27 16:48:00,
2013-01-27 11:53:00,34.9,20.8,30.48,South,187,5.0,12.0,56,0.00,,---,0.00,VWS V14.00,2013-01-27 16:53:00,
2013-01-27 11:58:00,35.0,21.7,30.48,SSW,202,2.0,3.0,58,0.00,,---,0.00,VWS V14.00,2013-01-27 16:58:00,
2013-01-27 12:03:00,35.6,21.0,30.47,SSE,153,4.0,10.0,55,0.00,,---,0.00,VWS V14.00,2013-01-27 17:03:00,
2013-01-27 12:08:00,35.6,21.5,30.47,SSE,157,4.0,11.0,56,0.00,,---,0.00,VWS V14.00,2013-01-27 17:08:00,
2013-01-27 12:13:00,35.5,21.0,30.47,SSE,163,9.0,11.0,55,0.00,,---,0.00,VWS V14.00,2013-01-27 17:13:00,
2013-01-27 12:18:00,35.8,21.6,30.47,SSE,151,9.0,11.0,56,0.00,,---,0.00,VWS V14.00,2013-01-27 17:18:00,
2013-01-27 12:23:00,36.3,21.7,30.46,SSW,196,5.0,11.0,55,0.00,,---,0.00,VWS V14.00,2013-01-27 17:23:00,
2013-01-27 12:28:00,36.5,21.9,30.46,SSE,158,9.0,9.0,55,0.00,,---,0.00,VWS V14.00,2013-01-27 17:28:00,
2013-01-27 12:33:00,37.1,22.0,30.45,SSE,167,9.0,13.0,54,0.00,,---,0.00,VWS V14.00,2013-01-27 17:33:00,
2013-01-27 12:38:00,37.1,21.6,30.45,South,172,8.0,15.0,53,0.00,,---,0.00,VWS V14.00,2013-01-27 17:38:00,
2013-01-27 12:43:00,37.2,22.1,30.44,SSW,208,5.0,15.0,54,0.00,,---,0.00,VWS V14.00,2013-01-27 17:43:00,
2013-01-27 12:48:00,37.8,22.7,30.43,SSE,148,9.0,15.0,54,0.00,,---,0.00,VWS V14.00,2013-01-27 17:48:00,
2013-01-27 12:53:00,37.6,22.0,30.44,SE,142,6.0,15.0,53,0.00,,---,0.00,VWS V14.00,2013-01-27 17:53:00,
2013-01-27 12:58:00,37.7,22.6,30.43,SSE,153,11.0,11.0,54,0.00,,---,0.00,VWS V14.00,2013-01-27 17:58:00,
2013-01-27 13:03:00,37.5,22.4,30.43,ESE,123,7.0,12.0,54,0.00,,---,0.00,VWS V14.00,2013-01-27 18:03:00,
2013-01-27 13:08:00,37.6,22.5,30.43,SSW,205,9.0,17.0,54,0.00,,---,0.00,VWS V14.00,2013-01-27 18:08:00,
2013-01-27 13:13:00,37.8,22.7,30.43,SE,145,5.0,17.0,54,0.00,,---,0.00,VWS V14.00,2013-01-27 18:13:00,
2013-01-27 13:18:00,37.8,22.2,30.42,SE,132,8.0,17.0,53,0.00,,---,0.00,VWS V14.00,2013-01-27 18:18:00,
2013-01-27 13:23:00,37.8,22.2,30.42,SE,138,6.0,17.0,53,0.00,,---,0.00,VWS V14.00,2013-01-27 18:23:00,
2013-01-27 13:28:00,38.1,22.5,30.42,SE,144,9.0,9.0,53,0.00,,---,0.00,VWS V14.00,2013-01-27 18:28:00,
2013-01-27 13:33:00,38.0,22.9,30.42,SSE,159,5.0,14.0,54,0.00,,---,0.00,VWS V14.00,2013-01-27 18:33:00,
2013-01-27 13:38:00,37.9,23.2,30.42,ESE,111,2.0,14.0,55,0.00,,---,0.00,VWS V14.00,2013-01-27 18:38:00,
2013-01-27 13:43:00,38.2,23.5,30.42,ESE,110,5.0,14.0,55,0.00,,---,0.00,VWS V14.00,2013-01-27 18:43:00,
2013-01-27 13:48:00,38.3,23.1,30.42,SSE,165,4.0,14.0,54,0.00,,---,0.00,VWS V14.00,2013-01-27 18:48:00,
2013-01-27 13:53:00,38.7,23.5,30.42,SSE,154,5.0,14.0,54,0.00,,---,0.00,VWS V14.00,2013-01-27 18:53:00,
2013-01-27 13:58:00,38.3,23.1,30.42,SE,128,4.0,7.0,54,0.00,,---,0.00,VWS V14.00,2013-01-27 18:58:00,
2013-01-27 14:03:00,38.1,22.9,30.42,East,95,6.0,8.0,54,0.00,,---,0.00,VWS V14.00,2013-01-27 19:03:00,
2013-01-27 14:08:00,37.4,22.7,30.41,SE,142,4.0,8.0,55,0.00,,---,0.00,VWS V14.00,2013-01-27 19:08:00,
2013-01-27 14:13:00,37.4,22.7,30.41,SE,134,7.0,9.0,55,0.00,,---,0.00,VWS V14.00,2013-01-27 19:13:00,
2013-01-27 14:18:00,38.1,22.9,30.41,ESE,105,4.0,9.0,54,0.00,,---,0.00,VWS V14.00,2013-01-27 19:18:00,
2013-01-27 14:23:00,38.5,23.3,30.41,SE,137,6.0,9.0,54,0.00,,---,0.00,VWS V14.00,2013-01-27 19:23:00,
2013-01-27 14:28:00,37.9,22.8,30.41,SSE,151,1.0,4.0,54,0.00,,---,0.00,VWS V14.00,2013-01-27 19:28:00,
2013-01-27 14:33:00,37.5,22.8,30.41,SSE,148,0.0,7.0,55,0.00,,---,0.00,VWS V14.00,2013-01-27 19:33:00,
2013-01-27 14:38:00,38.0,23.3,30.40,ESE,112,2.0,7.0,55,0.00,,---,0.00,VWS V14.00,2013-01-27 19:38:00,
2013-01-27 14:43:00,38.3,23.1,30.40,ESE,103,0.0,9.0,54,0.00,,---,0.00,VWS V14.00,2013-01-27 19:43:00,
2013-01-27 14:48:00,38.5,23.3,30.40,SE,135,2.0,9.0,54,0.00,,---,0.00,VWS V14.00,2013-01-27 19:48:00,
2013-01-27 14:53:00,38.9,23.7,30.40,SE,131,6.0,9.0,54,0.00,,---,0.00,VWS V14.00,2013-01-27 19:53:00,
2013-01-27 14:58:00,38.8,23.6,30.40,SSE,155,9.0,9.0,54,0.00,,---,0.00,VWS V14.00,2013-01-27 19:58:00,
2013-01-27 15:02:00,38.9,23.7,30.40,SSE,162,4.0,9.0,54,0.00,,---,0.00,VWS V14.00,2013-01-27 20:02:00,
2013-01-27 15:07:00,39.0,23.3,30.41,South,183,11.0,11.0,53,0.00,,---,0.00,VWS V14.00,2013-01-27 20:07:00,
2013-01-27 15:12:00,39.2,23.5,30.41,SSE,156,0.0,11.0,53,0.00,,---,0.00,VWS V14.00,2013-01-27 20:12:00,
2013-01-27 15:17:00,39.3,23.2,30.41,SSE,153,2.0,11.0,52,0.00,,---,0.00,VWS V14.00,2013-01-27 20:17:00,
2013-01-27 15:22:00,39.0,23.3,30.41,SE,138,6.0,11.0,53,0.00,,---,0.00,VWS V14.00,2013-01-27 20:22:00,
2013-01-27 15:27:00,38.8,23.6,30.41,SE,134,7.0,7.0,54,0.00,,---,0.00,VWS V14.00,2013-01-27 20:27:00,
2013-01-27 15:32:00,38.8,23.6,30.41,SE,126,2.0,7.0,54,0.00,,---,0.00,VWS V14.00,2013-01-27 20:32:00,
2013-01-27 15:37:00,38.6,23.4,30.41,SE,134,0.0,7.0,54,0.00,,---,0.00,VWS V14.00,2013-01-27 20:37:00,
2013-01-27 15:42:00,38.4,23.2,30.40,SSE,159,1.0,7.0,54,0.00,,---,0.00,VWS V14.00,2013-01-27 20:42:00,
2013-01-27 15:47:00,38.5,23.3,30.40,South,175,5.0,8.0,54,0.00,,---,0.00,VWS V14.00,2013-01-27 20:47:00,
2013-01-27 15:52:00,38.5,22.9,30.41,South,179,4.0,8.0,53,0.00,,---,0.00,VWS V14.00,2013-01-27 20:52:00,
2013-01-27 15:57:00,38.5,23.3,30.40,South,176,5.0,5.0,54,0.00,,---,0.00,VWS V14.00,2013-01-27 20:57:00,
2013-01-27 16:02:00,38.6,23.4,30.40,South,181,1.0,6.0,54,0.00,,---,0.00,VWS V14.00,2013-01-27 21:02:00,
2013-01-27 16:07:00,38.7,23.5,30.41,South,181,0.0,7.0,54,0.00,,---,0.00,VWS V14.00,2013-01-27 21:07:00,
2013-01-27 16:12:00,38.8,23.6,30.41,SSE,154,5.0,7.0,54,0.00,,---,0.00,VWS V14.00,2013-01-27 21:12:00,
2013-01-27 16:17:00,38.6,23.4,30.41,SE,146,4.0,7.0,54,0.00,,---,0.00,VWS V14.00,2013-01-27 21:17:00,
2013-01-27 16:22:00,38.5,23.8,30.41,SSE,165,6.0,7.0,55,0.00,,---,0.00,VWS V14.00,2013-01-27 21:22:00,
2013-01-27 16:27:00,38.5,23.8,30.41,South,171,4.0,5.0,55,0.00,,---,0.00,VWS V14.00,2013-01-27 21:27:00,
2013-01-27 16:32:00,38.4,23.7,30.40,SSE,157,2.0,5.0,55,0.00,,---,0.00,VWS V14.00,2013-01-27 21:32:00,
2013-01-27 16:37:00,38.2,23.5,30.40,SSE,165,5.0,9.0,55,0.00,,---,0.00,VWS V14.00,2013-01-27 21:37:00,
2013-01-27 16:42:00,38.0,23.3,30.41,South,187,4.0,9.0,55,0.00,,---,0.00,VWS V14.00,2013-01-27 21:42:00,
2013-01-27 16:47:00,37.7,23.4,30.40,South,183,0.0,9.0,56,0.00,,---,0.00,VWS V14.00,2013-01-27 21:47:00,
2013-01-27 16:52:00,37.5,23.7,30.40,South,185,2.0,9.0,57,0.00,,---,0.00,VWS V14.00,2013-01-27 21:52:00,
2013-01-27 16:57:00,37.3,23.5,30.41,South,181,0.0,0.0,57,0.00,,---,0.00,VWS V14.00,2013-01-27 21:57:00,
2013-01-27 17:02:00,36.9,23.5,30.41,South,186,1.0,4.0,58,0.00,,---,0.00,VWS V14.00,2013-01-27 22:02:00,
2013-01-27 17:07:00,36.8,23.8,30.41,South,186,0.0,4.0,59,0.00,,---,0.00,VWS V14.00,2013-01-27 22:07:00,
2013-01-27 17:12:00,36.3,23.4,30.41,South,186,0.0,4.0,59,0.00,,---,0.00,VWS V14.00,2013-01-27 22:12:00,
2013-01-27 17:17:00,36.1,23.6,30.41,South,186,0.0,4.0,60,0.00,,---,0.00,VWS V14.00,2013-01-27 22:17:00,
2013-01-27 17:22:00,35.9,23.8,30.41,South,186,0.0,4.0,61,0.00,,---,0.00,VWS V14.00,2013-01-27 22:22:00,
2013-01-27 17:27:00,35.8,23.7,30.41,South,186,4.0,4.0,61,0.00,,---,0.00,VWS V14.00,2013-01-27 22:27:00,
2013-01-27 17:32:00,35.6,23.9,30.41,South,182,3.0,4.0,62,0.00,,---,0.00,VWS V14.00,2013-01-27 22:32:00,
2013-01-27 17:37:00,35.5,23.8,30.41,South,182,0.0,4.0,62,0.00,,---,0.00,VWS V14.00,2013-01-27 22:37:00,
2013-01-27 17:42:00,35.2,23.9,30.41,South,182,0.0,4.0,63,0.00,,---,0.00,VWS V14.00,2013-01-27 22:42:00,
2013-01-27 17:47:00,35.2,23.9,30.41,South,182,2.0,4.0,63,0.00,,---,0.00,VWS V14.00,2013-01-27 22:47:00,
2013-01-27 17:52:00,35.2,23.9,30.42,South,178,0.0,6.0,63,0.00,,---,0.00,VWS V14.00,2013-01-27 22:52:00,
2013-01-27 17:57:00,35.1,23.8,30.41,SSE,155,5.0,5.0,63,0.00,,---,0.00,VWS V14.00,2013-01-27 22:57:00,
2013-01-27 18:02:00,35.0,23.7,30.42,SSE,154,2.0,7.0,63,0.00,,---,0.00,VWS V14.00,2013-01-27 23:02:00,
2013-01-27 18:07:00,35.0,23.7,30.41,SSE,158,5.0,7.0,63,0.00,,---,0.00,VWS V14.00,2013-01-27 23:07:00,
2013-01-27 18:12:00,34.8,23.9,30.41,South,174,4.0,7.0,64,0.00,,---,0.00,VWS V14.00,2013-01-27 23:12:00,
2013-01-27 18:17:00,34.7,23.8,30.41,South,178,2.0,7.0,64,0.00,,---,0.00,VWS V14.00,2013-01-27 23:17:00,
2013-01-27 18:22:00,34.7,23.8,30.41,South,173,2.0,7.0,64,0.00,,---,0.00,VWS V14.00,2013-01-27 23:22:00,
2013-01-27 18:27:00,34.6,23.7,30.40,South,174,0.0,0.0,64,0.00,,---,0.00,VWS V14.00,2013-01-27 23:27:00,
2013-01-27 18:32:00,34.5,23.6,30.41,South,177,0.0,5.0,64,0.00,,---,0.00,VWS V14.00,2013-01-27 23:32:00,
2013-01-27 18:37:00,34.2,23.3,30.41,South,177,1.0,5.0,64,0.00,,---,0.00,VWS V14.00,2013-01-27 23:37:00,
2013-01-27 18:42:00,33.8,23.3,30.40,South,182,2.0,5.0,65,0.00,,---,0.00,VWS V14.00,2013-01-27 23:42:00,
2013-01-27 18:47:00,33.7,23.2,30.41,SSW,192,3.0,8.0,65,0.00,,---,0.00,VWS V14.00,2013-01-27 23:47:00,
2013-01-27 18:52:00,33.5,23.4,30.41,SSE,167,5.0,8.0,66,0.00,,---,0.00,VWS V14.00,2013-01-27 23:52:00,
2013-01-27 18:57:00,33.4,23.3,30.41,South,182,4.0,4.0,66,0.00,,---,0.00,VWS V14.00,2013-01-27 23:57:00,
2013-01-27 19:02:00,33.3,23.5,30.41,South,178,2.0,5.0,67,0.00,,---,0.00,VWS V14.00,2013-01-28 00:02:00,
2013-01-27 19:07:00,33.1,23.4,30.41,SSE,163,0.0,5.0,67,0.00,,---,0.00,VWS V14.00,2013-01-28 00:07:00,
2013-01-27 19:12:00,33.0,23.2,30.41,SSE,163,0.0,5.0,67,0.00,,---,0.00,VWS V14.00,2013-01-28 00:12:00,
2013-01-27 19:17:00,32.8,23.1,30.41,South,169,0.0,5.0,67,0.00,,---,0.00,VWS V14.00,2013-01-28 00:17:00,
2013-01-27 19:22:00,32.5,22.8,30.42,South,169,0.0,5.0,67,0.00,,---,0.00,VWS V14.00,2013-01-28 00:22:00,
2013-01-27 19:27:00,32.1,22.8,30.41,South,169,0.0,0.0,68,0.00,,---,0.00,VWS V14.00,2013-01-28 00:27:00,
2013-01-27 19:32:00,31.6,22.6,30.41,South,169,0.0,0.0,69,0.00,,---,0.00,VWS V14.00,2013-01-28 00:32:00,
2013-01-27 19:37:00,31.4,22.8,30.41,SSE,168,1.0,4.0,70,0.00,,---,0.00,VWS V14.00,2013-01-28 00:37:00,
2013-01-27 19:42:00,31.1,22.5,30.41,SSE,168,0.0,4.0,70,0.00,,---,0.00,VWS V14.00,2013-01-28 00:42:00,
2013-01-27 19:47:00,30.3,22.0,30.40,SSE,167,2.0,4.0,71,0.00,,---,0.00,VWS V14.00,2013-01-28 00:47:00,
2013-01-27 19:52:00,30.4,22.8,30.39,SSE,157,4.0,8.0,73,0.00,,---,0.00,VWS V14.00,2013-01-28 00:52:00,
2013-01-27 19:57:00,31.0,23.0,30.39,South,173,5.0,5.0,72,0.00,,---,0.00,VWS V14.00,2013-01-28 00:57:00,
2013-01-27 20:02:00,31.4,23.1,30.40,South,189,0.0,6.0,71,0.00,,---,0.00,VWS V14.00,2013-01-28 01:02:00,
2013-01-27 20:07:00,31.4,23.1,30.39,South,174,2.0,6.0,71,0.00,,---,0.00,VWS V14.00,2013-01-28 01:07:00,
2013-01-27 20:12:00,31.4,23.1,30.39,South,171,0.0,6.0,71,0.00,,---,0.00,VWS V14.00,2013-01-28 01:12:00,
2013-01-27 20:17:00,31.3,23.0,30.39,South,171,0.0,6.0,71,0.00,,---,0.00,VWS V14.00,2013-01-28 01:17:00,
2013-01-27 20:22:00,31.1,22.8,30.39,South,171,1.0,6.0,71,0.00,,---,0.00,VWS V14.00,2013-01-28 01:22:00,
2013-01-27 20:27:00,31.0,22.7,30.39,SSE,167,0.0,0.0,71,0.00,,---,0.00,VWS V14.00,2013-01-28 01:27:00,
2013-01-27 20:32:00,31.1,22.8,30.39,SSE,167,0.0,4.0,71,0.00,,---,0.00,VWS V14.00,2013-01-28 01:32:00,
2013-01-27 20:37:00,30.9,23.0,30.40,SSE,167,0.0,4.0,72,0.00,,---,0.00,VWS V14.00,2013-01-28 01:37:00,
2013-01-27 20:42:00,30.8,23.2,30.40,SSE,167,0.0,4.0,73,0.00,,---,0.00,VWS V14.00,2013-01-28 01:42:00,
2013-01-27 20:47:00,30.6,23.3,30.40,SSE,167,0.0,4.0,74,0.00,,---,0.00,VWS V14.00,2013-01-28 01:47:00,
2013-01-27 20:52:00,30.5,23.2,30.41,SSE,167,0.0,4.0,74,0.00,,---,0.00,VWS V14.00,2013-01-28 01:52:00,
2013-01-27 20:57:00,30.5,23.5,30.40,SSE,167,0.0,4.0,75,0.00,,---,0.00,VWS V14.00,2013-01-28 01:57:00,
2013-01-27 21:02:00,30.4,23.8,30.40,SSE,167,0.0,0.0,76,0.00,,---,0.00,VWS V14.00,2013-01-28 02:02:00,
2013-01-27 21:07:00,30.5,23.9,30.40,SSE,167,0.0,0.0,76,0.00,,---,0.00,VWS V14.00,2013-01-28 02:07:00,
2013-01-27 21:12:00,30.8,23.8,30.39,SSE,167,0.0,1.0,75,0.00,,---,0.00,VWS V14.00,2013-01-28 02:12:00,
2013-01-27 21:17:00,31.0,24.0,30.40,SSE,167,0.0,2.0,75,0.00,,---,0.00,VWS V14.00,2013-01-28 02:17:00,
2013-01-27 21:22:00,31.2,23.9,30.40,SSW,204,4.0,5.0,74,0.00,,---,0.00,VWS V14.00,2013-01-28 02:22:00,
2013-01-27 21:27:00,31.2,23.9,30.39,SSW,209,0.0,5.0,74,0.00,,---,0.00,VWS V14.00,2013-01-28 02:27:00,
2013-01-27 21:32:00,31.4,24.1,30.40,SSW,209,0.0,1.0,74,0.00,,---,0.00,VWS V14.00,2013-01-28 02:32:00,
2013-01-27 21:37:00,31.4,23.8,30.40,SSW,209,0.0,3.0,73,0.00,,---,0.00,VWS V14.00,2013-01-28 02:37:00,
2013-01-27 21:42:00,31.5,23.9,30.40,SSW,209,0.0,3.0,73,0.00,,---,0.00,VWS V14.00,2013-01-28 02:42:00,
2013-01-27 21:47:00,31.5,23.9,30.40,SSW,209,0.0,3.0,73,0.00,,---,0.00,VWS V14.00,2013-01-28 02:47:00,
2013-01-27 21:52:00,31.5,23.9,30.39,SSW,209,0.0,3.0,73,0.00,,---,0.00,VWS V14.00,2013-01-28 02:52:00,
2013-01-27 21:57:00,31.6,24.0,30.39,SSW,209,0.0,3.0,73,0.00,,---,0.00,VWS V14.00,2013-01-28 02:57:00,
2013-01-27 22:02:00,31.4,24.1,30.39,SSW,209,0.0,3.0,74,0.00,,---,0.00,VWS V14.00,2013-01-28 03:02:00,
2013-01-27 22:07:00,31.3,24.0,30.39,SSW,209,0.0,3.0,74,0.00,,---,0.00,VWS V14.00,2013-01-28 03:07:00,
2013-01-27 22:12:00,31.3,24.0,30.39,SSW,209,0.0,3.0,74,0.00,,---,0.00,VWS V14.00,2013-01-28 03:12:00,
2013-01-27 22:17:00,31.4,24.1,30.38,SSW,209,0.0,3.0,74,0.00,,---,0.00,VWS V14.00,2013-01-28 03:17:00,
2013-01-27 22:22:00,31.4,24.4,30.38,SSW,197,0.0,3.0,75,0.00,,---,0.00,VWS V14.00,2013-01-28 03:22:00,
2013-01-27 22:27:00,31.6,24.6,30.38,SSE,159,5.0,5.0,75,0.00,,---,0.00,VWS V14.00,2013-01-28 03:27:00,
2013-01-27 22:32:00,32.0,24.3,30.38,SSW,195,0.0,7.0,73,0.00,,---,0.00,VWS V14.00,2013-01-28 03:32:00,
2013-01-27 22:37:00,32.2,24.2,30.39,SSW,195,0.0,7.0,72,0.00,,---,0.00,VWS V14.00,2013-01-28 03:37:00,
2013-01-27 22:42:00,32.3,24.3,30.39,SSW,195,0.0,7.0,72,0.00,,---,0.00,VWS V14.00,2013-01-28 03:42:00,
2013-01-27 22:47:00,32.5,24.2,30.38,South,191,1.0,7.0,71,0.00,,---,0.00,VWS V14.00,2013-01-28 03:47:00,
2013-01-27 22:52:00,32.6,24.2,30.38,SSE,154,0.0,7.0,71,0.00,,---,0.00,VWS V14.00,2013-01-28 03:52:00,
2013-01-27 22:57:00,32.7,24.4,30.39,SSE,153,0.0,7.0,71,0.00,,---,0.00,VWS V14.00,2013-01-28 03:57:00,
2013-01-27 23:02:00,32.7,24.4,30.38,SSE,153,0.0,2.0,71,0.00,,---,0.00,VWS V14.00,2013-01-28 04:02:00,
2013-01-27 23:07:00,32.7,24.4,30.38,SSE,153,0.0,2.0,71,0.00,,---,0.00,VWS V14.00,2013-01-28 04:07:00,
2013-01-27 23:12:00,32.7,24.4,30.38,SSE,153,0.0,2.0,71,0.00,,---,0.00,VWS V14.00,2013-01-28 04:12:00,
2013-01-27 23:17:00,32.6,24.2,30.38,SSE,153,0.0,2.0,71,0.00,,---,0.00,VWS V14.00,2013-01-28 04:17:00,
2013-01-27 23:22:00,32.6,24.2,30.38,SSE,153,0.0,2.0,71,0.00,,---,0.00,VWS V14.00,2013-01-28 04:22:00,
2013-01-27 23:27:00,32.4,24.4,30.38,SSE,153,0.0,2.0,72,0.00,,---,0.00,VWS V14.00,2013-01-28 04:27:00,
2013-01-27 23:32:00,32.1,24.4,30.38,SSE,153,0.0,0.0,73,0.00,,---,0.00,VWS V14.00,2013-01-28 04:32:00,
2013-01-27 23:37:00,32.3,24.6,30.39,SSE,153,0.0,0.0,73,0.00,,---,0.00,VWS V14.00,2013-01-28 04:37:00,
2013-01-27 23:42:00,32.5,24.5,30.39,SSE,153,2.0,2.0,72,0.00,,---,0.00,VWS V14.00,2013-01-28 04:42:00,
2013-01-27 23:47:00,32.8,24.5,30.38,SSE,153,1.0,5.0,71,0.00,,---,0.00,VWS V14.00,2013-01-28 04:47:00,
2013-01-27 23:52:00,33.0,24.6,30.38,SSE,153,2.0,5.0,71,0.00,,---,0.00,VWS V14.00,2013-01-28 04:52:00,
2013-01-27 23:57:00,33.0,24.6,30.38,SSE,153,0.0,5.0,71,0.00,,---,0.00,VWS V14.00,2013-01-28 04:57:00,